Home   Weather   Jena   Past weeks

Flag for Germany Past Weather in Jena, Thuringia, Germany — Yesterday and Last 2 Weeks

Now
66 °F

Passing clouds.


Feels Like: 66 °F
Forecast: 59 / 74 °F
Wind: 3 mph from North

Location: Erfurt-Bindersleben

Current Time: Jul 22, 2017 at 3:13:55 am

Latest Report: Jul 22, 2017 at 2:20 am


Visibility: N/A

Pressure: 29.89 "Hg

Humidity: 73%

Dew Point: 57 °F

Location of JenaLocation

Past Weather in Jena — Graph

°F

Jena Temperature Yesterday

Maximum temperature yesterday: 81 °F (at 5:50 pm)
Minimum temperature yesterday: 59 °F (at 5:50 am)
Average temperature yesterday: 70 °F

High & Low Weather Summary for the Past Weeks

 TemperatureHumidityPressure
High90 °F (Jul 19, 3:50 pm)100% (Jul 10, 4:50 am)30.24 "Hg (Jul 10, 4:50 am)
Low45 °F (Jul 13, 4:50 am)29% (Jul 19, 4:50 pm)29.71 "Hg (Jul 12, 5:50 pm)
Average66 °F73%30.00 "Hg
* Reported Jul 7 1:20 am — Jul 22 1:50 am, Jena. Weather by CustomWeather, © 2017

Note: Actual official high and low records may vary slightly from our data, if they occured in-between our weather recording intervals... More about our weather records

Advertising

Jena Weather History for the Previous 24 Hours

Scroll right to see more
 ConditionsComfort  
Time TempWeatherWind HumidityBarometerVisibility
1:50 am
Sat, Jul 22
66 °FPassing clouds.3 mph73%29.89 "HgN/A
12:50 am68 °FPassing clouds.3 mph69%29.92 "HgN/A
12:20 am70 °FClear.5 mph64%29.92 "Hg10 mi
11:50 pm
Fri, Jul 21
70 °FClear.5 mph64%29.92 "Hg10 mi
11:20 pm70 °FPassing clouds.3 mph64%29.92 "HgN/A
10:50 pm70 °FClear.3 mph64%29.92 "Hg10 mi
10:20 pm72 °FClear.2 mph57%29.92 "Hg10 mi
9:50 pm73 °FClear.2 mph53%29.92 "Hg10 mi
9:20 pm73 °FClear.2 mph53%29.92 "Hg10 mi
8:50 pm75 °FSunny.2 mph50%29.92 "Hg10 mi
8:31 pm77 °FSunny.1 mph44%29.92 "Hg10 mi
7:50 pm77 °FSunny.1 mph47%29.89 "Hg10 mi
7:20 pm79 °FPassing clouds.3 mph45%29.92 "HgN/A
6:50 pm79 °FPassing clouds.3 mph45%29.92 "HgN/A
6:20 pm79 °FPassing clouds.3 mph45%29.92 "HgN/A
5:50 pm81 °FSunny.3 mph39%29.92 "Hg10 mi
5:20 pm77 °FSunny.3 mph47%29.92 "Hg10 mi
4:50 pm77 °FSunny.3 mph51%29.95 "Hg10 mi
4:20 pm77 °FSunny.3 mph54%29.95 "Hg10 mi
3:50 pm79 °FSunny.3 mph51%29.95 "Hg10 mi
2:50 pm77 °FSunny.2 mph47%29.95 "Hg10 mi
2:20 pm75 °FScattered clouds.2 mph50%29.98 "HgN/A
1:50 pm75 °FScattered clouds.5 mph54%29.98 "HgN/A
1:20 pm75 °FScattered clouds.2 mph50%29.98 "HgN/A
12:50 pm73 °FScattered clouds.5 mph57%29.98 "HgN/A
12:20 pm75 °FScattered clouds.5 mph54%29.98 "HgN/A
11:50 am72 °FScattered clouds.5 mph57%29.98 "HgN/A
11:20 am72 °FScattered clouds.5 mph61%30.01 "HgN/A
10:50 am72 °FScattered clouds.5 mph61%30.01 "HgN/A
10:23 am70 °FScattered clouds.5 mph64%30.01 "HgN/A
9:50 am68 °FScattered clouds.2 mph69%30.01 "HgN/A
9:20 am68 °FScattered clouds.2 mph69%30.01 "HgN/A
8:50 am68 °FScattered clouds.2 mph73%30.01 "HgN/A
8:20 am64 °FPassing clouds.5 mph83%30.01 "HgN/A
7:50 am64 °FPassing clouds.5 mph83%29.98 "HgN/A
7:20 am63 °FPassing clouds.7 mph88%29.98 "HgN/A
6:50 am61 °FPassing clouds.5 mph94%29.98 "HgN/A
6:20 am61 °FPassing clouds.5 mph94%29.98 "HgN/A
5:50 am59 °FScattered clouds.6 mph94%29.98 "HgN/A
5:30 am61 °FScattered clouds.7 mph88%29.98 "HgN/A
5:20 am61 °FPassing clouds.7 mph88%29.98 "HgN/A
4:50 am61 °FClear.8 mph94%29.95 "Hg10 mi
4:20 am63 °FClear.8 mph88%29.95 "Hg10 mi
3:50 am63 °FPassing clouds.7 mph88%29.95 "HgN/A
3:20 am63 °FPassing clouds.8 mph88%29.95 "HgN/A
Weather by CustomWeather, © 2017

See weather overviewHow to use our weather pages